Starlink 3562

operational
NORAD ID: 51861 Int'l Des: 2022-022 Owner: SPXS Country: US Constellation: starlink
LEOCIRCULAR

关于 Starlink 3562

正在加载描述...

实时位置

正在加载3D地球...

即将过境

高度历史

Altitude vs Time

uPlot chart will show altitude changes over time

两行轨道根数

1 51861U 22022K 25258.77375043 .00001775 00000-0 12958-3 0 9995
2 51861 53.2174 74.3465 0001527 81.0216 279.0949 15.08838503196622
Epoch: Sep 15, 2025 • Age: 17 hours

当前状态

高度 542.9 km
速度 7.59 km/s
星下点 -10.43°S, 93.64°E
发射日期 Mar 3, 2022
运行时间 3.5 years
类型 internet

技术详情

分类 Payload
质量 297.00 kg
干质量 275.00 kg
总质量 297.00 kg
长度 0.20 m
直径 2.80 m
跨度 9.00 m
形状 Box + pan
制造商 SPXS
平台类型 Starlink
阶段状态 In Orbit
所有者/国家 SPXS/US

大型星座

Loading constellations...